London, United Kingdom

7:02 AM BST on October 01, 2016 (GMT +0100)
Heathrow

Weather History for EGLL - April, 2013

Change the Weather History Date:

Wednesday, April 24, 2013

  Actual Average Record
Temperature  
Mean Temperature 58 °F -  
Max Temperature 68 °F 59 °F 73 °F (2011)
Min Temperature 47 °F 44 °F 37 °F (2016)
Degree Days  
Heating Degree Days 8    
Growing Degree Days 8 (Base 50)    
Moisture  
Dew Point 50 °F    
Average Humidity 74    
Maximum Humidity 88    
Minimum Humidity 53    
Precipitation  
Precipitation 0.01 in - - ()
Sea Level Pressure  
Sea Level Pressure 30.23 in    
Wind  
Wind Speed 7 mph ()    
Max Wind Speed 14 mph    
Max Gust Speed 22 mph    
Visibility 7.7 miles    
Events Rain    
Averages and records for this station are not official NWS values.
T = Trace of Precipitation, MM = Missing Value Source: Averaged Metar Reports

Daily Weather History Graph

Daily Weather History Graph

Search for Another Location

Airport or City:

Trip Planner

Search our weather history database for the weather conditions in past years. The results will help you decide how hot, cold, wet, or windy it might be!

Date:

Astronomy

Apr. 24, 2013 Rise Set
Actual Time 5:47 AM BST 8:13 PM BST
Civil Twilight 5:10 AM BST 8:50 PM BST
Nautical Twilight 4:23 AM BST 9:37 PM BST
Astronomical Twilight 3:28 AM BST 10:33 PM BST
Moon 6:54 PM BST (4/24) 4:52 AM BST (4/24)
Length of Visible Light 15h 40m
Length of Day
14h 26m
Waxing Gibbous, 97% of the Moon is Illuminated
Apr 24
Waxing Gibbous
Apr 25
Full
May 2
Last Quarter
May 10
New
May 18
First Quarter

Hourly Weather History & Observations

Time (BST) Temp. Dew Point Humidity Pressure Visibility Wind Dir Wind Speed Gust Speed Precip Events Conditions
12:20 AM 53.6 °F 46.4 °F 77% 30.21 in - West 4.6 mph - N/A   Clear
12:50 AM 53 °F 47 °F 72% 30.22 in 19 mi WSW 5.8 mph - -  
12:50 AM 53.6 °F 46.4 °F 77% 30.21 in - West 5.8 mph - N/A   Clear
1:20 AM 53.6 °F 46.4 °F 77% 30.21 in - West 5.8 mph - N/A   Clear
1:50 AM 51.8 °F 46.4 °F 82% 30.21 in - West 5.8 mph - N/A   Clear
2:20 AM 51.8 °F 46.4 °F 82% 30.21 in - WSW 5.8 mph - N/A   Clear
2:50 AM 50.0 °F 46.4 °F 87% 30.21 in 6.2 mi West 3.5 mph - N/A   Unknown
3:20 AM 50.0 °F 46.4 °F 87% 30.21 in 6.2 mi West 5.8 mph - N/A   Unknown
3:50 AM 49 °F 45 °F 82% 30.21 in 12 mi West 3.5 mph - -  
3:50 AM 50.0 °F 44.6 °F 82% 30.21 in 6.2 mi West 4.6 mph - N/A   Unknown
4:20 AM 48.2 °F 44.6 °F 87% 30.21 in - West 6.9 mph - N/A   Clear
4:50 AM 48.2 °F 44.6 °F 87% 30.21 in - Variable 3.5 mph - N/A   Clear
5:20 AM 48.2 °F 44.6 °F 87% 30.21 in - South 4.6 mph - N/A   Clear
5:50 AM 48.2 °F 44.6 °F 87% 30.21 in - SSW 5.8 mph - N/A   Clear
6:20 AM 48.2 °F 44.6 °F 87% 30.21 in - SW 6.9 mph - N/A   Clear
6:50 AM 50 °F 46 °F 83% 30.22 in 6 mi SSW 9.2 mph - -  
6:50 AM 50.0 °F 46.4 °F 87% 30.21 in 5.6 mi SSW 8.1 mph - N/A   Unknown
7:20 AM 50.0 °F 46.4 °F 87% 30.21 in 5.6 mi SW 8.1 mph - N/A   Unknown
7:50 AM 51.8 °F 46.4 °F 82% 30.21 in - SW 9.2 mph - N/A   Clear
8:20 AM 53.6 °F 48.2 °F 82% 30.21 in 6.2 mi SW 10.4 mph - N/A   Partly Cloudy
8:50 AM 55.4 °F 48.2 °F 77% 30.21 in 6.2 mi SSW 10.4 mph - N/A   Partly Cloudy
9:20 AM 57.2 °F 48.2 °F 72% 30.21 in 6.2 mi SSW 12.7 mph - N/A   Partly Cloudy
9:50 AM 60 °F 51 °F 63% 30.24 in 15 mi SW 11.5 mph - -  
9:50 AM 59.0 °F 48.2 °F 67% 30.24 in 6.2 mi SSW 10.4 mph - N/A   Partly Cloudy
10:20 AM 60.8 °F 50.0 °F 68% 30.24 in - WSW 13.8 mph - N/A   Clear
10:50 AM 60.8 °F 50.0 °F 68% 30.24 in 6.2 mi WSW 13.8 mph - N/A   Partly Cloudy
11:20 AM 60.8 °F 51.8 °F 72% 30.24 in 6.2 mi WSW 11.5 mph - N/A   Partly Cloudy
11:50 AM 59.0 °F 50.0 °F 72% 30.24 in 6.2 mi SW 12.7 mph - N/A   Partly Cloudy
12:20 PM 60.8 °F 50.0 °F 68% 30.24 in - WSW 12.7 mph - N/A   Clear
12:50 PM 61 °F 50 °F 57% 30.24 in 17 mi WSW 11.5 mph - -   Mostly Cloudy
12:50 PM 60.8 °F 50.0 °F 68% 30.24 in - WSW 10.4 mph - N/A   Clear
1:20 PM 60.8 °F 50.0 °F 68% 30.24 in - West 12.7 mph - N/A   Clear
1:50 PM 62.6 °F 51.8 °F 68% 30.24 in - West 12.7 mph - N/A   Clear
2:20 PM 64.4 °F 51.8 °F 64% 30.24 in - West 10.4 mph 21.9 mph N/A   Clear
2:50 PM 66.2 °F 51.8 °F 60% 30.21 in - West 11.5 mph - N/A   Clear
3:20 PM 68.0 °F 51.8 °F 56% 30.21 in - West 13.8 mph - N/A   Clear
3:50 PM 65 °F 53 °F 55% 30.23 in 16 mi WSW 12.7 mph - -  
3:50 PM 66.2 °F 51.8 °F 60% 30.21 in - WSW 12.7 mph - N/A   Clear
4:20 PM 66.2 °F 51.8 °F 60% 30.21 in - WSW 11.5 mph - N/A   Clear
4:50 PM 66.2 °F 51.8 °F 60% 30.21 in - West 13.8 mph - N/A   Clear
5:20 PM 68.0 °F 53.6 °F 60% 30.21 in - West 11.5 mph - N/A   Clear
5:50 PM 66.2 °F 53.6 °F 64% 30.21 in - WNW 11.5 mph - N/A   Clear
6:20 PM 66.2 °F 53.6 °F 64% 30.21 in 6.2 mi WNW 8.1 mph - N/A   Partly Cloudy
6:50 PM 66 °F 53 °F 53% 30.23 in 25 mi West 8.1 mph - -   Scattered Clouds
6:50 PM 64.4 °F 53.6 °F 68% 30.24 in 6.2 mi West 10.4 mph - N/A   Scattered Clouds
7:20 PM 64.4 °F 53.6 °F 68% 30.24 in 6.2 mi West 10.4 mph - N/A   Scattered Clouds
7:50 PM 64.4 °F 51.8 °F 64% 30.24 in 6.2 mi West 10.4 mph - N/A   Partly Cloudy
8:20 PM 60.8 °F 53.6 °F 77% 30.24 in 6.2 mi West 6.9 mph - N/A   Light Drizzle
8:50 PM 60.8 °F 51.8 °F 72% 30.27 in 6.2 mi WNW 6.9 mph - N/A   Partly Cloudy
9:20 PM 59.0 °F 51.8 °F 77% 30.27 in 6.2 mi WNW 6.9 mph - N/A Rain Light Rain
9:50 PM 60 °F 54 °F 74% 30.28 in 6 mi WNW 4.6 mph - - Rain Light Rain
9:50 PM 59.0 °F 53.6 °F 82% 30.27 in 6.2 mi WNW 5.8 mph - N/A Rain Light Rain
10:20 PM 59.0 °F 53.6 °F 82% 30.27 in 6.2 mi WNW 6.9 mph - N/A Rain Light Rain
10:50 PM 57.2 °F 53.6 °F 88% 30.27 in 6.2 mi WNW 5.8 mph - N/A Rain Light Rain
11:20 PM 57.2 °F 53.6 °F 88% 30.24 in 6.2 mi West 4.6 mph - N/A Rain Light Rain
11:50 PM 57.2 °F 53.6 °F 88% 30.24 in 6.2 mi SSW 4.6 mph - N/A Rain Light Rain